Tracking 29892 objects as of 21-Nov-2024
HD Live streaming from Space Station
objects crossing your sky now

ONEWEB-0403

Track ONEWEB-0403 now!
10-day predictions
ONEWEB-0403 is classified as:


NORAD ID: 50483
Int'l Code: 2021-132Q
Perigee: 1,195.6 km
Apogee: 1,198.1 km
Inclination: 87.9 °
Period: 109.2 minutes
Semi major axis: 7567 km
RCS: Unknown
Launch date: December 27, 2021
Source: United Kingdom (UK)
Launch site: TYURATAM MISSILE AND SPACE COMPLEX (TTMTR)
Your satellite tracking list
CZ-6A DEB
Track 1 satellite(s)




NASA's NSSDC Master Catalog

Two Line Element Set (TLE):
1 50483U 21132Q   24325.79400586  .00000059  00000-0  11647-3 0  9990
2 50483  87.9094  89.5508 0001656 105.2069 254.9246 13.18685599146025
Source of the keplerian elements: AFSPC